STARLINK-4447 (53472 NORAD) Tracking and Keplerian Element Data

This shows tracking and keplerian element data for the satellite.

Feedback or suggestion? Click here.




ElementValue
Catalog53472
NameSTARLINK-4447
Epoch Orbit1521
Epoch Day324.84347331
Epoch Year2022
RAAN83.8906
Inclination97.6548
Eccentricity6.73E-05
Argument of Perigee0.8481
Mean Anonmoly359.2744
Mean Motion15.01313474
Decay Rate-0.00014366
L11 53472U 22099H 22324.84347331 -.00014366 00000+0 -11146-2 0 9995
L22 53472 97.6548 83.8906 0000673 0.8481 359.2744 15.01313474 15215



Live tracking and technical data element details for STARLINK-4447 (NORAD 53472). STARLINK-4447 can be tracked NOW for your location showing map with azimuth and elevation plus other details from your city location.







IsCatalogInMostPopularTable: catalog: 53472, numindb: 6
Update: records affected: 1



GetName: 53472 STARLINK-4447

Hit Count: updated at: Tue, 29 Nov 2022 02:14:29 GMT